Wetbulb
56.44 56.39 55.39 55.11 55.19 55.26 54.54 54.79 55.61 55.72 56.54 55.46 54.72 56.78 55.33 55.44 55.88 56.76 59.89 59.73 59.50 60.31 59.05 58.09 57.21 55.39 54.74 54.08 52.89 51.85 51.60 49.86 49.52 47.38 46.67 46.95 46.99 46.38 45.98 45.02 45.26 46.19 45.59
55.16 56.23 55.62 55.32 54.40 52.69 53.22 54.10 54.75 55.20 57.28 57.92 57.62 56.01 56.74 55.66 55.80 56.44 57.64 60.67 60.03 60.32 59.77 58.39 57.82 55.48 54.47 54.11 52.29 52.17 50.88 50.99 49.67 46.34 46.21 43.16 44.57 45.67 46.16 45.69 46.26 45.74 45.53
54.62 55.27 54.34 54.02 53.98 52.21 52.92 53.87 55.01 56.46 58.41 58.09 57.13 55.68 56.11 55.91 55.58 55.27 57.07 60.33 61.52 61.76 61.20 59.86 58.84 56.32 55.63 54.63 52.87 52.04 51.43 50.65 51.35 48.65 47.61 43.12 40.76 41.98 45.02 45.56 47.46 46.50 44.16
56.00 55.87 54.29 53.14 54.31 54.88 55.68 56.27 56.74 58.12 58.57 58.18 57.34 56.28 55.97 55.24 56.34 55.70 56.27 60.60 61.48 61.69 61.48 60.91 60.11 57.40 56.58 55.04 53.94 55.22 54.53 51.85 50.00 48.87 46.91 44.84 44.04 40.27 39.46 43.43 45.67 46.32 44.31
55.07 54.90 54.71 54.79 55.22 56.33 57.26 57.43 57.81 57.90 58.52 58.55 58.27 56.94 55.56 55.61 55.25 55.54 56.56 59.86 60.96 61.27 61.42 60.26 58.96 56.91 56.65 55.51 55.14 54.79 53.55 52.93 51.50 48.46 44.84 44.82 44.49 44.29 40.45 37.82 41.77 44.34 42.54
55.57 56.10 56.57 57.07 56.73 57.55 57.46 57.80 57.42 57.40 58.13 58.49 58.78 59.08 57.67 54.70 54.08 55.29 55.87 58.68 60.27 60.45 60.16 60.51 59.49 57.30 55.48 54.63 53.53 53.65 53.40 51.23 48.57 46.59 45.64 44.93 43.70 43.21 42.02 39.67 39.19 38.65 41.12
55.43 55.92 55.80 55.70 56.50 56.58 57.05 57.55 57.86 57.38 57.89 57.97 58.62 58.68 58.69 56.23 54.99 54.70 56.20 58.08 58.79 59.66 59.51 58.55 55.89 55.58 53.89 53.17 53.26 53.10 50.88 47.89 46.48 45.28 45.15 45.09 44.20 43.39 43.19 41.55 39.79 38.42 38.38
55.07 55.78 56.24 56.99 56.68 57.17 57.40 57.85 57.81 58.44 58.92 58.65 59.19 59.44 59.05 58.18 57.44 56.62 57.19 59.06 59.12 59.01 57.20 55.46 54.20 53.47 53.01 52.37 52.08 50.09 46.88 46.30 45.49 45.17 44.34 43.66 43.64 44.11 43.37 41.77 39.93 37.23 34.91
54.41 55.53 57.14 57.53 58.02 57.89 58.21 58.33 58.28 58.67 59.57 59.52 59.93 59.83 59.62 59.53 58.24 58.59 58.18 59.24 58.78 57.37 56.57 55.93 53.60 52.24 51.46 51.14 49.59 47.29 46.30 45.92 45.07 43.81 43.22 42.94 43.38 43.40 43.22 42.54 41.81 38.89 32.03
52.18 54.76 55.93 58.47 59.20 59.62 60.06 60.01 60.04 59.57 59.73 59.84 59.94 60.47 60.30 59.70 59.96 59.64 57.65 57.99 58.11 56.85 55.39 54.91 53.52 52.44 50.49 47.83 47.11 45.47 45.33 44.20 43.46 43.44 42.85 42.74 42.79 42.44 42.02 41.99 41.03 40.25 36.78
50.96 52.43 53.67 56.95 59.76 60.31 60.24 60.32 60.40 60.55 60.44 60.63 59.97 60.06 59.26 59.81 59.64 59.13 58.94 59.14 57.66 55.85 54.24 53.24 52.42 49.45 47.60 46.68 45.96 44.45 43.68 42.52 42.02 42.54 42.40 42.22 42.33 41.10 42.08 41.02 40.90 39.38 37.22
52.01 53.18 53.82 54.89 56.40 59.30 60.00 60.25 60.80 61.04 61.28 61.42 60.80 60.14 59.11 59.55 58.90 59.16 59.37 57.51 56.09 54.96 53.82 51.06 48.87 47.11 46.11 45.71 44.53 42.73 42.34 41.90 41.49 41.52 41.28 40.93 42.30 41.96 41.47 41.11 39.46 37.25 37.08
51.72 52.95 53.93 54.49 54.87 56.81 58.80 60.04 60.77 61.01 62.87 61.39 59.50 59.12 57.36 58.32 57.77 54.04 53.28 53.28 51.42 50.56 49.51 48.48 47.00 45.80 45.31 43.39 42.77 42.49 42.39 42.15 41.82 41.89 41.53 42.08 42.33 40.59 41.47 41.13 38.89 37.11 39.57
50.76 52.29 52.64 53.77 55.80 57.70 56.89 56.15 56.01 60.88 59.58 55.99 53.43 52.16 51.32 50.59 50.05 49.51 48.59 47.76 47.74 47.20 46.48 46.30 45.24 43.96 43.52 43.18 42.91 42.77 42.18 42.21 42.55 43.29 43.65 43.06 41.79 41.95 38.58 37.83 36.91 37.37 35.17
49.75 50.91 52.20 53.75 55.53 54.24 52.99 52.11 52.36 52.26 52.18 50.95 49.65 47.99 48.36 48.77 48.33 46.93 46.52 46.21 46.00 45.10 44.82 43.81 43.36 43.30 42.93 42.53 42.38 42.55 42.18 42.34 42.51 42.55 42.53 42.46 41.90 41.65 40.08 40.84 37.42 34.99 34.05
50.57 51.76 55.19 56.54 55.03 53.46 51.41 50.82 49.67 50.21 50.06 49.13 47.94 47.74 46.63 46.45 45.83 45.58 45.62 44.02 43.95 43.89 43.71 42.71 42.07 41.79 42.41 39.42 40.17 41.79 41.90 41.85 40.82 39.38 38.94 39.55 40.41 39.07 38.06 37.41 36.54 36.00 34.82
51.49 53.14 56.58 55.81 53.69 52.14 50.79 48.91 48.30 48.97 48.70 48.10 47.52 47.40 46.74 45.75 45.25 44.71 43.84 43.02 42.58 42.67 42.00 41.64 41.65 41.23 41.74 39.66 39.91 38.80 39.52 38.02 37.08 36.47 35.33 35.98 37.73 35.61 33.89 33.58 33.33 32.81 34.57
51.40 55.26 54.74 53.45 52.31 50.93 49.57 49.07 49.08 48.45 47.58 47.16 47.10 46.80 45.92 44.90 44.40 43.89 43.11 42.55 41.57 40.01 39.52 40.93 41.32 41.40 41.92 38.70 38.47 36.88 36.55 35.78 34.42 34.03 33.12 31.47 30.51 31.67 31.89 29.66 28.19 29.05 30.19
51.95 52.93 53.72 52.52 51.58 50.67 50.17 49.60 49.36 48.91 48.44 47.53 47.07 46.47 45.85 44.88 44.71 43.20 41.82 40.38 39.24 40.26 40.78 41.51 40.76 38.50 34.74 35.54 35.03 34.61 32.09 31.33 29.76 31.03 29.87 29.82 28.75 31.83 32.03 28.14 25.99 25.37 25.64
52.80 52.68 53.12 52.56 51.37 50.53 50.34 48.81 48.47 48.43 47.51 47.46 46.68 45.59 45.33 44.14 41.82 40.21 39.89 40.66 41.25 41.46 41.76 40.35 36.28 34.35 31.78 33.45 33.93 31.60 28.05 25.91 25.10 26.29 27.99 29.46 29.18 30.23 30.20 26.42 25.22 23.99 25.31
51.36 51.67 51.31 50.09 49.09 50.16 49.41 47.27 46.34 45.27 45.67 45.83 45.91 45.75 43.96 42.41 42.43 41.79 41.15 40.72 39.28 36.16 33.26 32.61 33.55 31.81 31.07 30.69 31.13 29.46 25.10 24.68 25.15 24.66 24.36 24.43 27.70 27.90 28.52 29.27 26.72 26.64 28.48
49.70 49.81 48.26 47.35 47.20 47.73 47.27 45.46 44.31 45.72 45.87 45.08 44.10 43.24 43.38 43.69 42.76 39.35 36.99 37.14 35.78 32.93 30.48 29.92 29.07 28.59 27.93 29.34 28.92 28.39 27.12 26.42 24.20 23.89 23.71 24.15 26.65 27.70 28.40 28.28 29.39 29.70 27.93
47.79 47.77 46.88 46.05 46.17 46.51 46.65 44.18 44.31 44.75 43.76 42.59 41.69 39.62 39.43 38.87 37.84 35.82 34.04 32.90 31.64 28.43 27.33 27.69 27.39 26.18 26.07 23.96 25.78 25.60 25.22 25.22 23.43 23.91 24.13 25.27 26.08 26.80 26.50 26.90 26.66 25.15 24.18
45.50 45.63 45.84 45.01 44.38 45.24 45.10 44.00 43.67 42.72 41.20 37.86 36.61 35.44 34.07 32.96 31.90 32.84 31.59 28.75 26.10 25.42 26.97 26.89 25.17 24.78 22.64 21.54 21.06 21.97 20.59 23.29 23.22 23.10 22.43 22.23 24.11 23.89 23.06 22.58 23.06 22.84 21.83
45.03 45.49 44.57 43.81 42.96 42.97 42.12 41.95 40.72 39.87 37.61 35.36 33.06 31.40 30.90 28.80 27.46 27.71 26.70 24.76 24.78 26.73 24.95 23.62 24.61 19.76 18.02 21.88 22.35 22.23 22.09 18.94 23.02 19.88 19.84 20.92 21.03 20.59 20.21 20.02 20.17 19.97 20.01
44.27 44.09 42.78 40.09 39.16 39.65 39.21 39.85 39.67 36.62 33.23 31.22 30.06 27.68 26.85 26.69 26.53 25.38 25.28 27.68 27.30 27.97 27.57 26.52 23.37 24.09 24.10 23.11 23.22 24.00 23.78 24.20 24.55 19.36 15.69 11.52 10.19 13.96 17.21 16.93 16.61 17.25 17.42
MSLP
1012.33 1013.16 1013.28 1014.31 1014.85 1015.30 1015.40 1015.44 1015.69 1016.02 1016.48 1016.54 1016.94 1017.22 1017.56 1017.73 1018.11 1018.44 1018.66 1019.06 1019.43 1019.73 1020.20 1020.85 1021.28 1021.74 1022.12 1022.52 1022.88 1023.35 1023.63 1023.81 1024.00 1024.66 1025.11 1025.37 1024.91 1024.90 1025.19 1025.02 1025.05 1025.16 1025.77
1011.91 1012.68 1013.15 1013.86 1014.41 1014.79 1015.10 1015.21 1015.42 1015.71 1016.00 1016.32 1016.80 1017.16 1017.36 1017.67 1017.95 1018.19 1018.50 1018.74 1019.00 1019.39 1019.95 1020.51 1020.99 1021.54 1021.93 1022.44 1022.58 1022.96 1023.42 1023.29 1023.47 1024.14 1024.79 1025.54 1025.59 1025.11 1024.85 1024.94 1024.98 1024.96 1025.12
1010.74 1011.82 1012.32 1013.08 1013.64 1014.18 1014.40 1014.77 1015.20 1015.44 1015.65 1015.96 1016.20 1016.71 1017.20 1017.54 1017.80 1017.92 1018.06 1018.15 1018.51 1018.95 1019.38 1020.00 1020.58 1020.98 1021.35 1021.79 1022.20 1022.39 1022.83 1023.27 1023.49 1023.43 1023.85 1025.16 1025.39 1025.06 1024.74 1024.69 1024.72 1024.89 1025.13
1009.44 1010.37 1011.18 1012.21 1012.67 1013.07 1013.64 1013.87 1014.27 1014.63 1014.97 1015.19 1015.59 1016.11 1016.42 1016.83 1016.94 1017.07 1017.31 1017.61 1017.92 1018.19 1018.62 1018.96 1019.41 1019.80 1020.25 1020.83 1021.35 1021.52 1022.23 1022.97 1023.65 1023.71 1024.05 1024.30 1024.73 1025.15 1025.63 1024.98 1024.74 1024.91 1025.13
1007.78 1008.84 1009.64 1010.37 1011.28 1012.08 1012.43 1012.93 1013.47 1013.78 1014.09 1014.47 1014.74 1015.24 1015.64 1015.96 1016.20 1016.60 1016.79 1017.02 1017.16 1017.39 1018.10 1018.56 1018.98 1019.52 1020.04 1020.52 1020.59 1020.91 1021.68 1022.96 1023.57 1023.67 1024.33 1024.97 1025.45 1025.93 1025.63 1025.60 1025.39 1025.21 1025.10
1006.60 1007.38 1008.15 1009.13 1009.89 1010.72 1011.31 1011.85 1012.41 1012.84 1013.19 1013.52 1013.85 1014.04 1014.58 1015.22 1015.71 1015.96 1016.33 1016.55 1016.88 1017.22 1017.32 1017.54 1017.95 1018.60 1019.32 1019.84 1020.53 1021.04 1021.73 1022.57 1023.16 1024.12 1024.73 1025.10 1025.23 1025.85 1025.91 1026.03 1025.94 1025.65 1025.24
1005.57 1006.55 1007.52 1008.24 1008.83 1009.50 1010.28 1010.92 1011.41 1011.83 1012.20 1012.62 1012.83 1013.02 1013.24 1013.80 1014.28 1014.71 1015.35 1015.97 1016.40 1016.56 1016.63 1017.17 1017.76 1018.46 1019.20 1019.68 1020.04 1020.89 1021.54 1021.97 1022.89 1023.67 1023.89 1024.92 1025.15 1025.59 1026.00 1026.28 1026.15 1025.85 1025.34
1004.21 1005.10 1005.90 1006.71 1007.42 1008.24 1009.08 1009.86 1010.34 1010.66 1010.90 1011.19 1011.25 1011.50 1012.06 1012.50 1013.11 1013.51 1013.78 1014.17 1014.99 1015.81 1016.54 1017.15 1017.67 1018.25 1019.02 1019.65 1020.09 1020.88 1021.57 1022.34 1022.82 1023.37 1023.98 1024.54 1024.93 1025.37 1025.62 1026.26 1026.36 1025.86 1025.43
1003.36 1003.95 1004.70 1005.23 1006.03 1006.90 1007.54 1008.18 1008.69 1009.08 1009.51 1009.82 1010.41 1010.68 1011.07 1011.73 1011.93 1012.53 1013.23 1013.81 1014.87 1015.33 1015.92 1016.57 1017.45 1018.10 1018.85 1019.39 1020.03 1020.84 1021.47 1022.22 1022.86 1023.55 1024.11 1024.58 1024.86 1025.06 1025.25 1025.77 1025.89 1025.54 1025.37
1002.71 1003.03 1003.51 1004.12 1004.78 1005.26 1005.76 1006.32 1006.89 1007.65 1008.45 1009.17 1009.60 1010.08 1010.50 1011.16 1012.01 1012.51 1013.39 1014.18 1014.79 1015.09 1015.92 1016.78 1017.57 1017.89 1018.42 1019.16 1019.83 1020.71 1021.53 1022.12 1022.84 1023.31 1023.77 1024.13 1024.27 1024.49 1024.84 1025.12 1025.08 1024.96 1024.94
1002.23 1002.65 1003.05 1003.38 1003.48 1003.98 1004.58 1005.14 1006.23 1006.91 1007.57 1008.04 1008.44 1009.05 1010.19 1010.63 1011.42 1012.54 1013.52 1014.20 1014.37 1015.35 1015.79 1016.65 1017.07 1017.82 1018.50 1019.17 1019.87 1020.69 1021.29 1021.95 1022.57 1023.10 1023.51 1023.78 1024.05 1024.37 1024.54 1024.56 1024.52 1024.57 1024.40
1002.02 1002.15 1002.71 1002.94 1003.58 1003.71 1003.80 1004.49 1005.42 1005.70 1005.73 1006.41 1007.52 1008.56 1009.64 1010.42 1011.88 1012.60 1012.23 1013.67 1014.66 1015.14 1015.64 1016.33 1017.17 1017.88 1018.49 1019.02 1019.84 1020.73 1021.47 1022.04 1022.55 1022.93 1023.39 1023.60 1023.85 1023.98 1024.06 1024.04 1024.06 1024.01 1023.75
1001.88 1002.07 1002.44 1003.10 1003.48 1003.78 1004.44 1004.95 1005.79 1007.36 1007.84 1008.06 1009.55 1008.93 1009.40 1009.43 1011.25 1012.19 1013.11 1013.48 1014.55 1015.27 1015.83 1016.48 1017.17 1017.87 1018.49 1019.31 1020.13 1020.50 1021.33 1021.76 1022.30 1022.61 1023.05 1023.29 1023.41 1023.51 1023.45 1023.36 1023.46 1023.33 1023.19
1001.69 1002.09 1002.54 1003.20 1003.98 1004.69 1005.88 1005.89 1006.88 1007.31 1007.65 1008.57 1010.91 1010.55 1010.86 1011.44 1012.68 1013.63 1013.94 1014.15 1014.98 1015.52 1016.15 1016.77 1017.38 1018.09 1018.79 1019.36 1019.93 1020.68 1021.37 1021.76 1022.17 1022.57 1022.83 1022.87 1022.95 1022.97 1022.96 1022.96 1022.85 1022.72 1022.80
1001.70 1002.08 1002.56 1003.74 1004.60 1005.23 1007.11 1007.64 1007.67 1007.76 1008.03 1009.10 1010.41 1010.93 1011.51 1012.40 1012.90 1013.67 1014.40 1014.80 1015.28 1015.96 1016.39 1017.22 1017.82 1018.43 1019.12 1019.68 1020.08 1020.54 1021.06 1021.78 1022.18 1022.40 1022.57 1022.51 1022.43 1022.37 1022.32 1022.47 1022.36 1022.29 1022.27
1001.87 1002.22 1003.13 1004.15 1004.97 1005.72 1006.55 1008.28 1009.23 1009.62 1009.85 1010.27 1010.76 1011.49 1012.09 1012.78 1013.34 1014.04 1014.84 1015.11 1015.75 1016.49 1017.02 1017.55 1018.08 1018.70 1019.25 1019.78 1020.22 1020.75 1021.43 1021.84 1022.17 1022.45 1022.50 1022.41 1022.15 1021.95 1021.96 1022.19 1022.38 1022.51 1022.41
1001.87 1002.70 1003.77 1004.95 1005.50 1006.11 1006.70 1007.51 1009.00 1009.98 1010.59 1011.05 1011.61 1011.98 1012.45 1013.05 1013.67 1014.04 1014.61 1015.42 1016.13 1016.68 1017.34 1017.88 1018.34 1018.98 1019.52 1020.04 1020.49 1021.07 1021.58 1021.97 1022.27 1022.45 1022.51 1022.39 1022.28 1022.23 1022.23 1022.00 1021.92 1021.85 1021.70
1002.04 1003.06 1004.05 1004.97 1005.91 1006.66 1007.22 1007.73 1008.44 1009.19 1010.04 1010.76 1011.40 1012.02 1012.43 1012.93 1013.58 1014.30 1015.09 1015.83 1016.42 1017.14 1017.69 1018.14 1018.75 1019.29 1019.67 1020.09 1020.71 1021.21 1021.66 1022.09 1022.43 1022.58 1022.78 1022.86 1022.75 1022.64 1022.49 1022.27 1022.11 1021.96 1021.68
1002.33 1003.33 1004.33 1005.16 1006.03 1006.87 1007.43 1007.83 1008.56 1009.26 1009.97 1010.67 1011.27 1011.99 1012.61 1013.41 1014.16 1014.83 1015.57 1016.22 1016.86 1017.43 1017.88 1018.31 1018.88 1019.56 1020.15 1020.26 1020.85 1021.32 1021.85 1022.31 1022.67 1022.82 1022.85 1022.71 1022.81 1022.64 1022.42 1022.29 1022.00 1021.60 1021.08
1002.55 1003.40 1004.44 1005.35 1006.03 1006.77 1007.39 1007.88 1008.60 1009.26 1009.88 1010.42 1011.15 1012.03 1012.82 1013.74 1014.48 1015.22 1016.03 1016.53 1016.99 1017.45 1017.92 1018.48 1019.12 1019.78 1020.54 1020.88 1021.20 1021.64 1022.15 1022.65 1022.91 1023.01 1023.00 1022.87 1022.88 1022.89 1022.67 1022.38 1022.01 1021.27 1020.60
1002.96 1003.76 1004.45 1005.28 1006.05 1006.62 1007.32 1008.21 1008.85 1009.41 1009.95 1010.72 1011.47 1012.29 1013.21 1013.95 1014.74 1015.55 1016.13 1016.60 1017.08 1017.77 1018.56 1019.20 1019.92 1020.49 1020.93 1021.54 1021.78 1022.16 1022.49 1022.92 1023.03 1022.92 1022.87 1022.88 1022.72 1022.60 1022.33 1022.01 1021.72 1021.24 1020.20
1003.23 1003.86 1004.67 1005.58 1006.22 1006.83 1007.56 1008.51 1009.18 1009.69 1010.33 1011.08 1011.87 1012.66 1013.38 1014.00 1014.54 1015.28 1016.02 1016.76 1017.51 1018.25 1018.94 1019.54 1020.50 1021.13 1021.63 1021.94 1022.14 1022.33 1022.65 1022.89 1023.03 1023.06 1022.90 1022.63 1022.33 1022.09 1021.90 1021.62 1021.21 1020.71 1020.25
1003.42 1004.10 1004.92 1005.93 1006.74 1007.24 1007.95 1009.00 1009.76 1010.37 1011.08 1011.78 1012.49 1013.14 1013.67 1014.14 1014.80 1015.51 1016.36 1017.25 1017.84 1018.59 1019.42 1019.96 1020.85 1021.74 1022.26 1022.52 1022.72 1022.76 1022.83 1022.80 1022.92 1022.94 1022.70 1022.22 1022.06 1021.83 1021.60 1021.38 1021.02 1020.70 1020.27
1003.89 1004.61 1005.53 1006.47 1007.40 1007.96 1008.64 1009.47 1010.31 1010.98 1011.86 1012.70 1013.49 1014.02 1014.50 1015.11 1015.71 1016.19 1016.84 1017.66 1018.48 1019.18 1019.78 1020.48 1021.30 1021.90 1022.59 1022.86 1022.89 1022.91 1022.84 1022.72 1022.66 1022.67 1022.37 1022.04 1021.91 1021.70 1021.58 1021.29 1021.03 1020.66 1020.32
1004.51 1005.45 1006.52 1007.37 1008.22 1008.83 1009.70 1010.28 1010.93 1011.68 1012.73 1013.61 1014.33 1014.99 1015.59 1016.34 1017.07 1017.94 1018.42 1018.81 1019.40 1019.58 1020.40 1021.15 1021.55 1021.99 1022.49 1022.73 1022.84 1022.82 1022.67 1022.55 1022.59 1022.47 1022.20 1021.95 1021.88 1021.69 1021.55 1021.32 1020.98 1020.65 1020.28
1005.18 1006.41 1007.72 1008.69 1009.55 1010.13 1010.95 1011.41 1011.62 1012.43 1013.77 1015.02 1015.81 1016.28 1016.75 1017.38 1018.09 1018.69 1019.45 1019.73 1019.78 1019.97 1020.39 1020.87 1021.32 1021.88 1022.28 1022.64 1022.79 1022.85 1022.66 1022.41 1022.30 1022.31 1022.38 1022.41 1022.44 1022.31 1021.91 1021.48 1021.15 1020.86 1020.42
Wind_Speed
14 16 15 13 12 11 12 11 12 13 7 4 5 3 5 3 3 4 8 8 8 7 6 5 5 5 6 5 6 4 6 4 4 4 2 3 4 5 4 4 5 6 7
17 18 18 16 13 15 14 14 15 13 9 8 7 5 6 3 4 5 7 10 8 7 7 7 6 6 5 6 6 5 3 4 5 5 3 1 3 2 4 4 5 7 5
22 20 19 19 16 17 17 17 16 15 13 13 6 3 3 2 5 4 6 6 11 11 8 8 6 8 7 7 5 6 6 5 1 2 4 3 5 1 1 6 4 5 4
23 23 22 20 21 21 18 18 17 16 12 12 10 10 9 8 7 7 5 7 13 12 12 13 11 9 8 8 6 6 5 4 4 2 4 5 3 3 1 3 3 3 4
24 24 25 22 22 21 20 19 18 15 14 13 13 12 10 8 7 6 10 9 11 13 13 11 8 8 7 8 8 6 6 3 0 2 4 4 3 3 2 2 3 2 3
23 24 23 22 21 18 17 18 16 17 17 17 17 14 17 11 9 10 9 9 9 9 12 13 11 8 7 9 6 6 7 6 7 4 2 0 4 2 2 1 3 3 4
22 22 24 21 20 23 21 19 20 20 20 21 19 18 17 15 14 10 9 9 8 9 12 10 7 6 6 6 6 6 6 8 7 7 6 3 2 3 2 1 3 4 3
18 24 25 24 24 25 24 23 22 21 22 23 25 19 16 12 9 12 10 12 12 11 6 7 6 7 7 6 7 5 6 7 7 9 6 4 3 3 2 2 3 4 3
17 20 24 24 24 25 25 26 25 23 20 20 14 20 18 13 15 15 8 10 7 6 8 8 8 8 8 9 8 6 8 8 7 7 6 3 3 3 2 5 7 7 4
8 15 18 23 22 22 24 24 24 25 22 16 14 12 15 12 8 10 6 8 7 6 7 6 7 9 9 9 9 8 8 9 5 5 6 4 3 3 5 7 8 5 6
5 5 4 14 22 21 21 22 21 21 19 19 14 15 8 7 6 8 9 6 7 9 10 10 10 10 9 9 9 8 10 9 8 6 6 6 5 5 5 4 5 7 4
8 3 5 4 10 17 20 20 20 21 21 18 14 11 9 10 9 2 13 12 10 8 9 9 8 9 9 10 10 10 7 7 7 6 4 5 5 7 7 6 8 5 5
9 8 6 6 5 4 3 8 2 5 8 8 7 7 9 10 10 7 5 8 9 8 8 9 10 10 9 9 8 10 8 7 6 5 5 6 6 6 7 7 6 5 5
9 8 7 7 8 8 14 11 11 10 14 8 8 10 11 12 9 9 7 9 8 10 9 8 9 9 9 9 9 8 6 5 4 4 5 6 6 8 7 6 7 6 6
7 8 8 8 9 10 15 12 10 10 11 11 11 11 11 11 11 11 9 9 9 8 10 10 9 8 7 6 8 7 7 4 3 3 4 5 7 11 11 8 7 6 5
6 6 11 11 10 9 10 17 14 9 10 10 11 9 11 11 11 11 10 10 10 9 9 9 9 8 5 11 10 7 4 3 2 4 5 6 8 8 8 9 11 7 7
8 9 14 9 9 10 10 11 13 13 12 12 11 10 10 10 10 11 10 10 9 8 8 8 8 7 7 9 8 7 3 2 3 4 4 5 6 7 7 10 10 7 9
8 12 11 10 9 10 10 12 10 11 11 12 12 11 12 12 11 10 10 9 8 8 7 8 7 6 5 10 8 8 3 1 3 4 5 5 6 6 9 9 9 9 9
8 8 10 12 11 11 11 12 12 12 12 12 12 12 12 12 11 11 10 8 9 8 6 6 6 7 6 14 10 8 5 5 5 5 5 6 6 10 16 10 11 12 12
11 13 14 13 12 11 11 11 12 12 12 12 13 12 10 11 11 10 10 8 7 7 5 5 8 12 9 12 12 9 4 5 3 4 4 7 7 13 15 11 11 13 13
12 10 11 11 10 11 12 11 10 11 10 12 11 10 11 11 9 9 5 5 5 7 7 8 8 9 9 10 15 13 5 2 1 2 3 3 13 17 19 17 9 11 15
13 11 10 9 7 10 11 10 10 11 13 10 11 11 10 8 7 7 5 7 8 8 6 7 7 6 7 12 14 13 10 7 2 4 3 5 17 18 17 13 16 17 13
10 9 11 10 7 7 9 10 9 12 11 11 9 7 7 9 8 8 8 7 7 6 4 4 7 6 5 5 12 12 10 8 3 2 9 15 16 16 8 13 17 11 6
7 6 11 10 7 7 10 10 10 11 10 9 7 6 8 8 8 7 7 7 5 4 4 5 5 4 4 3 3 4 2 6 5 5 6 7 9 5 5 6 8 6 7
6 9 9 8 7 10 9 9 9 11 10 8 7 6 7 9 9 7 5 6 4 5 6 3 4 4 3 3 4 6 4 2 4 4 3 4 2 6 6 6 7 8 8
10 10 9 12 11 12 10 8 9 11 11 9 7 6 5 5 6 7 7 11 10 13 13 11 6 4 7 4 5 9 10 11 11 1 2 2 3 3 6 6 8 7 9
Wind_Direction
162 169 164 168 165 172 179 178 171 186 176 169 169 166 192 163 174 166 180 181 182 173 163 158 160 167 166 182 183 172 199 210 181 110 37 276 242 183 187 189 193 187 178
161 168 168 170 169 168 179 169 179 186 190 183 191 173 175 185 170 189 183 189 180 170 166 168 173 180 163 187 195 180 197 199 186 159 126 246 328 290 215 195 206 207 177
166 170 166 168 169 177 181 182 190 197 202 187 169 155 141 178 195 197 204 185 181 180 168 172 179 180 184 199 195 193 192 216 209 201 145 162 215 185 264 239 210 208 206
170 172 171 176 179 184 189 191 198 200 189 183 185 194 196 192 201 201 185 180 181 180 187 194 195 185 192 186 191 186 191 144 190 73 32 30 67 162 219 332 288 181 225
168 172 177 180 182 185 185 190 192 189 194 196 194 198 199 200 190 195 199 180 185 184 191 190 185 175 185 194 185 159 147 101 75 154 133 74 44 327 86 280 306 338 265
175 179 179 175 181 185 184 188 191 195 198 207 212 203 203 196 192 190 192 191 183 184 192 195 192 186 180 184 160 134 148 145 143 138 75 164 148 225 244 169 286 258 274
173 177 180 185 182 183 190 194 197 201 200 208 212 209 199 192 193 185 186 174 183 194 207 192 166 173 166 147 145 153 140 144 141 143 135 149 138 143 138 123 253 255 288
179 181 182 184 189 189 189 194 201 205 200 203 211 211 200 195 187 194 185 183 184 194 175 158 153 147 142 144 127 116 118 133 141 143 151 153 143 145 130 204 256 274 259
193 186 188 189 187 191 193 192 199 208 209 208 198 207 207 195 197 203 191 185 180 165 157 163 150 141 140 136 130 137 138 133 140 138 149 151 165 174 184 242 250 243 253
178 195 185 190 192 192 193 195 195 198 206 209 213 204 205 205 191 198 163 137 127 136 143 149 152 148 140 137 134 133 139 138 141 149 157 180 175 190 220 238 248 248 237
102 123 178 194 191 192 194 197 197 198 199 204 203 203 174 169 137 116 111 145 168 163 147 152 147 143 137 135 132 141 146 147 147 152 177 204 191 225 243 240 250 250 225
163 154 103 97 173 196 197 194 195 200 198 201 204 196 126 119 87 245 156 172 163 151 142 135 134 134 140 144 146 146 140 140 159 174 186 227 234 239 242 248 255 240 238
164 160 142 117 125 152 199 193 156 122 39 6 358 108 112 122 165 118 94 107 114 124 124 131 138 143 140 129 125 135 154 160 177 165 191 232 234 248 248 246 239 243 254
164 174 164 156 92 77 79 82 87 142 183 136 119 98 97 100 102 113 110 106 115 118 119 121 120 121 129 133 137 142 142 142 171 205 224 239 243 258 255 258 252 251 246
174 180 177 116 116 98 95 83 72 79 84 99 106 105 101 106 109 105 106 113 108 107 109 114 116 122 127 140 141 141 140 159 206 246 264 266 260 257 259 266 261 254 256
121 74 95 126 121 117 112 116 116 100 101 100 95 97 104 115 114 116 114 105 107 114 119 122 126 123 122 135 129 127 150 170 204 269 284 281 283 283 301 348 356 321 313
137 92 133 132 132 128 124 112 120 127 125 124 124 119 115 108 108 107 105 110 116 116 113 114 121 121 127 148 153 153 156 188 250 276 297 316 8 27 3 346 342 331 320
136 125 130 126 120 116 113 117 115 112 117 120 123 124 121 113 112 116 115 115 110 118 126 128 133 145 162 172 158 153 162 53 38 43 37 26 3 358 360 349 337 327 318
126 125 133 130 127 130 135 128 128 129 129 130 126 126 127 131 133 125 127 126 128 137 144 155 151 110 75 98 101 102 87 71 41 27 6 0 347 347 351 338 321 315 305
131 132 137 139 140 147 144 133 140 142 139 139 135 136 139 128 130 133 141 149 147 151 154 123 109 115 101 88 95 90 92 73 24 352 337 345 342 334 335 326 316 307 302
135 129 131 139 143 144 140 140 140 142 132 128 132 120 120 126 136 140 144 151 132 109 98 100 121 112 111 95 95 91 84 94 6 340 335 326 334 330 325 322 307 293 301
140 138 129 130 127 128 131 137 137 134 132 128 125 128 136 146 148 139 130 120 121 113 112 110 102 101 98 99 86 77 67 51 32 355 327 314 326 325 325 326 324 338 329
141 128 129 127 126 124 133 128 131 127 123 123 130 134 137 131 134 121 109 105 106 111 117 114 115 122 106 76 67 54 41 31 29 331 328 328 323 320 319 336 339 331 331
134 115 124 126 117 113 119 122 119 119 116 113 111 97 98 96 80 83 88 97 95 96 98 97 104 105 107 87 55 40 12 4 348 324 319 304 300 299 327 336 336 334 337
108 114 113 107 100 101 102 111 111 114 113 100 94 87 85 90 83 66 84 95 69 102 107 95 106 104 81 60 38 5 345 311 305 296 308 317 327 350 344 339 341 341 336
111 105 94 91 85 85 79 83 99 101 98 87 75 71 77 86 94 97 83 71 101 101 108 113 121 109 124 77 11 341 333 330 327 329 313 323 342 341 339 341 340 337 335